Location: Sihaung
(22.8641°N, 94.0549°E)
Time: 11:50:18
(UTC+00:00)

GPS 2-04 Rocket1 - Pass Details

Date: 03 March 2021
Orbit: 416 x 542 km, 35.6° (Epoch: 12 April)

Event Time Altitude Azimuth Distance (km) Brightness Sun altitude
Exits shadow 22:55:40 19° 325° (NW) 1,189 4.2 -16.3°
Maximum altitude 22:56:30 21° 343° (NNW) 1,146 4.3 -16.1°
Drops below altitude 10° 22:59:28 10° 34° (NNE) 1,692 5.7 -15.4°
Sets 23:02:09 0° 50° (NE) 2,603 7.1 -14.8°
